Weather History for Superior, WI

Change the Weather History Date:

Monday, June 17, 2013

  Actual Average Record
Temperature  
Mean Temperature 46 °F -  
Max Temperature 53 °F 68 °F 85 °F (1949)
Min Temperature 36 °F 47 °F 30 °F (1965)
Degree Days  
Heating Degree Days 20    
Moisture  
Dew Point 43 °F    
Average Humidity 86    
Maximum Humidity 100    
Minimum Humidity 67    
Precipitation  
Precipitation 0.00 in - - ()
Sea Level Pressure  
Sea Level Pressure 30.01 in    
Wind  
Wind Speed 8 mph (ENE)    
Max Wind Speed 17 mph    
Max Gust Speed 26 mph    
Visibility 10 miles    
Events      
Averages and records for this station are not official NWS values.
T = Trace of Precipitation, MM = Missing Value Source: NWS Daily Summary

Daily Weather History Graph

Daily Weather History Graph

Search for Another Location

Airport:

Trip Planner

Search our weather history database for the weather conditions in past years. The results will help you decide how hot, cold, wet, or windy it might be!

Date:

Astronomy

Jun. 17, 2013 Rise Set
Actual Time 5:14 AM CDT 9:04 PM CDT
Civil Twilight 4:34 AM CDT 9:44 PM CDT
Nautical Twilight 3:41 AM CDT 10:37 PM CDT
Astronomical Twilight 2:22 AM CDT 11:56 PM CDT
Moon 2:25 PM CDT (6/17) 1:10 AM CDT (6/17)
Length of Visible Light 17h 09m
Length of Day
15h 50m
First Quarter, 60% of the Moon is Illuminated
Jun 17
First Quarter
Jun 23
Full
Jun 29
Last Quarter
Jul 8
New
Jul 15
First Quarter

Hourly Weather History & Observations

Time (CDT) Temp. Windchill Dew Point Humidity Pressure Visibility Wind Dir Wind Speed Gust Speed Precip Events Conditions
12:15 AM 50.5 °F - 49.5 °F 96% 29.87 in 10.0 mi ENE 3.5 mph - N/A   Mostly Cloudy
12:35 AM 50.2 °F - 49.1 °F 96% 29.87 in 10.0 mi Calm Calm - N/A   Mostly Cloudy
12:55 AM 49.5 °F - 48.6 °F 97% 29.86 in 10.0 mi SSE 3.5 mph - N/A   Scattered Clouds
1:15 AM 49.1 °F - 48.6 °F 98% 29.86 in 10.0 mi Calm Calm - N/A   Mostly Cloudy
1:35 AM 48.4 °F - 47.8 °F 98% 29.86 in 10.0 mi Calm Calm - N/A   Mostly Cloudy
1:55 AM 47.1 °F - 46.8 °F 99% 29.87 in 7.0 mi Calm Calm - N/A   Scattered Clouds
2:15 AM 48.4 °F - 47.8 °F 98% 29.87 in 10.0 mi Calm Calm - N/A   Mostly Cloudy
2:35 AM 48.6 °F - 48.2 °F 99% 29.87 in 10.0 mi Calm Calm - N/A   Overcast
2:55 AM 50.0 °F - 49.8 °F 99% 29.87 in 10.0 mi NE 6.9 mph - N/A   Overcast
3:15 AM 48.9 °F - 48.2 °F 97% 29.90 in 10.0 mi NE 10.4 mph 18.4 mph N/A   Overcast
3:35 AM 45.1 °F 40.3 °F 44.6 °F 98% 29.91 in 4.0 mi ENE 9.2 mph 20.7 mph N/A   Overcast
3:55 AM 44.6 °F 38.1 °F 44.6 °F 100% 29.91 in 0.8 mi ENE 13.8 mph 19.6 mph N/A   Overcast
4:15 AM 44.8 °F 38.0 °F 44.8 °F 100% 29.92 in 0.8 mi ENE 15.0 mph 19.6 mph N/A   Overcast
4:35 AM 45.5 °F 40.3 °F 45.1 °F 99% 29.94 in 7.0 mi ENE 10.4 mph - N/A   Overcast
4:55 AM 45.7 °F 39.1 °F 45.3 °F 99% 29.94 in 10.0 mi ENE 15.0 mph 19.6 mph N/A   Overcast
5:15 AM 45.5 °F 40.8 °F 44.6 °F 97% 29.94 in 10.0 mi ENE 9.2 mph 17.3 mph N/A   Overcast
5:35 AM 45.0 °F 38.9 °F 43.7 °F 95% 29.94 in 10.0 mi ENE 12.7 mph 19.6 mph N/A   Overcast
5:55 AM 44.8 °F 39.4 °F 43.3 °F 95% 29.94 in 10.0 mi ENE 10.4 mph - N/A   Overcast
6:15 AM 44.6 °F 39.2 °F 42.8 °F 93% 29.95 in 10.0 mi ENE 10.4 mph 18.4 mph N/A   Overcast
6:35 AM 44.4 °F 38.6 °F 42.4 °F 93% 29.95 in 10.0 mi ENE 11.5 mph 17.3 mph N/A   Overcast
6:55 AM 44.8 °F 39.0 °F 42.3 °F 91% 29.96 in 10.0 mi ENE 11.5 mph 19.6 mph N/A   Overcast
7:15 AM 45.0 °F 38.9 °F 41.9 °F 89% 29.96 in 10.0 mi ENE 12.7 mph 18.4 mph N/A   Overcast
7:35 AM 45.1 °F 39.1 °F 41.7 °F 88% 29.96 in 10.0 mi ENE 12.7 mph 17.3 mph N/A   Overcast
7:55 AM 45.1 °F 39.1 °F 41.5 °F 87% 29.97 in 10.0 mi ENE 12.7 mph 19.6 mph N/A   Overcast
8:15 AM 45.3 °F 39.7 °F 41.5 °F 87% 29.98 in 10.0 mi ENE 11.5 mph 19.6 mph N/A   Overcast
8:35 AM 46.0 °F 41.4 °F 42.1 °F 86% 29.99 in 10.0 mi ENE 9.2 mph 16.1 mph N/A   Overcast
8:55 AM 45.5 °F 39.9 °F 41.9 °F 87% 29.99 in 10.0 mi ENE 11.5 mph 23.0 mph N/A   Overcast
9:15 AM 45.5 °F 39.9 °F 42.3 °F 88% 30.00 in 10.0 mi ENE 11.5 mph - N/A   Overcast
9:35 AM 46.4 °F 41.1 °F 42.6 °F 87% 30.00 in 10.0 mi ENE 11.5 mph 18.4 mph N/A   Overcast
9:55 AM 45.7 °F 39.8 °F 41.9 °F 87% 30.01 in 10.0 mi ENE 12.7 mph 19.6 mph N/A   Overcast
10:15 AM 45.3 °F 39.3 °F 41.7 °F 87% 30.01 in 10.0 mi East 12.7 mph - N/A   Overcast
10:35 AM 45.3 °F 39.7 °F 41.9 °F 88% 30.02 in 10.0 mi ENE 11.5 mph 16.1 mph N/A   Overcast
10:55 AM 45.1 °F 39.1 °F 41.4 °F 87% 30.02 in 10.0 mi ENE 12.7 mph 16.1 mph N/A   Overcast
11:15 AM 46.4 °F 41.1 °F 41.9 °F 84% 30.02 in 10.0 mi NE 11.5 mph - N/A   Overcast
11:35 AM 47.3 °F - 42.3 °F 83% 30.04 in 10.0 mi East 12.7 mph 19.6 mph N/A   Overcast
11:55 AM 48.2 °F - 42.8 °F 82% 30.04 in 10.0 mi ENE 15.0 mph 19.6 mph N/A   Overcast
12:15 PM 48.9 °F - 42.6 °F 79% 30.04 in 10.0 mi ENE 11.5 mph 18.4 mph N/A   Overcast
12:35 PM 48.9 °F - 42.8 °F 79% 30.05 in 10.0 mi ENE 12.7 mph 19.6 mph N/A   Overcast
12:55 PM 49.1 °F - 42.4 °F 78% 30.05 in 10.0 mi ENE 15.0 mph 23.0 mph N/A   Overcast
1:15 PM 48.6 °F - 42.8 °F 80% 30.06 in 10.0 mi ENE 10.4 mph 21.9 mph N/A   Overcast
1:35 PM 50.0 °F - 43.2 °F 77% 30.06 in 10.0 mi ENE 13.8 mph 18.4 mph N/A   Overcast
1:55 PM 50.0 °F - 43.0 °F 77% 30.06 in 10.0 mi ENE 17.3 mph 26.5 mph N/A   Overcast
2:15 PM 50.7 °F - 43.9 °F 77% 30.07 in 10.0 mi ENE 12.7 mph 19.6 mph N/A   Overcast
2:35 PM 49.6 °F - 43.3 °F 79% 30.07 in 10.0 mi ENE 11.5 mph 20.7 mph N/A   Overcast
2:55 PM 50.9 °F - 43.7 °F 76% 30.06 in 10.0 mi East 13.8 mph 21.9 mph N/A   Overcast
3:15 PM 53.4 °F - 44.1 °F 71% 30.06 in 10.0 mi ENE 16.1 mph 23.0 mph N/A   Overcast
3:35 PM 51.8 °F - 43.2 °F 72% 30.07 in 10.0 mi ENE 10.4 mph 20.7 mph N/A   Overcast
3:55 PM 52.0 °F - 42.8 °F 71% 30.07 in 10.0 mi ENE 10.4 mph 19.6 mph N/A   Overcast
4:15 PM 51.1 °F - 42.4 °F 72% 30.07 in 10.0 mi ENE 13.8 mph 18.4 mph N/A   Scattered Clouds
4:35 PM 51.8 °F - 41.7 °F 68% 30.07 in 10.0 mi ENE 15.0 mph 21.9 mph N/A   Clear
4:55 PM 51.6 °F - 42.3 °F 70% 30.07 in 10.0 mi NE 12.7 mph 18.4 mph N/A   Clear
5:15 PM 51.8 °F - 42.1 °F 69% 30.07 in 10.0 mi ENE 15.0 mph 18.4 mph N/A   Clear
5:35 PM 51.1 °F - 40.6 °F 67% 30.07 in 10.0 mi ENE 12.7 mph 19.6 mph N/A   Scattered Clouds
5:55 PM 49.5 °F - 41.5 °F 74% 30.07 in 10.0 mi ENE 13.8 mph 18.4 mph N/A   Mostly Cloudy
6:15 PM 50.4 °F - 41.9 °F 73% 30.07 in 10.0 mi ENE 11.5 mph 16.1 mph N/A   Overcast
6:35 PM 50.5 °F - 42.3 °F 73% 30.07 in 10.0 mi ENE 8.1 mph - N/A   Overcast
6:55 PM 49.5 °F - 42.1 °F 76% 30.07 in 10.0 mi ENE 8.1 mph - N/A   Mostly Cloudy
7:15 PM 49.1 °F - 41.9 °F 76% 30.07 in 10.0 mi NE 8.1 mph - N/A   Scattered Clouds
7:35 PM 48.4 °F - 41.2 °F 76% 30.08 in 10.0 mi NE 9.2 mph - N/A   Mostly Cloudy
7:55 PM 47.3 °F - 41.2 °F 79% 30.08 in 10.0 mi NE 8.1 mph - N/A   Overcast
8:15 PM 46.4 °F 43.5 °F 41.0 °F 81% 30.09 in 10.0 mi NE 5.8 mph - N/A   Mostly Cloudy
8:35 PM 46.0 °F 42.5 °F 41.0 °F 83% 30.08 in 10.0 mi ENE 6.9 mph - N/A   Scattered Clouds
8:55 PM 45.0 °F 41.8 °F 40.3 °F 84% 30.08 in 10.0 mi NE 5.8 mph - N/A   Clear
9:15 PM 44.1 °F 40.8 °F 40.1 °F 86% 30.08 in 10.0 mi NE 5.8 mph - N/A   Clear
9:35 PM 44.1 °F 41.5 °F 39.6 °F 84% 30.08 in 10.0 mi ENE 4.6 mph - N/A   Clear
9:55 PM 43.3 °F 40.7 °F 38.8 °F 84% 30.09 in 10.0 mi East 4.6 mph - N/A   Clear
10:15 PM 43.2 °F - 38.8 °F 85% 30.10 in 10.0 mi Calm Calm - N/A   Clear
10:35 PM 41.7 °F - 38.3 °F 88% 30.10 in 10.0 mi Calm Calm - N/A   Clear
10:55 PM 39.9 °F - 37.8 °F 92% 30.10 in 10.0 mi Calm Calm - N/A   Clear
11:15 PM 38.7 °F - 36.9 °F 93% 30.11 in 10.0 mi Calm Calm - N/A   Clear
11:35 PM 40.1 °F - 37.9 °F 92% 30.11 in 10.0 mi Calm Calm - N/A   Clear
11:55 PM 36.3 °F - 35.1 °F 95% 30.11 in 10.0 mi Calm Calm - N/A   Clear